THOR ABLESTAR DEB, 1504

Orbit data source: Space-Track

THOR ABLESTAR DEB, 1504 is space debris in LEO originally from a launch on Fri, 13 Aug 1965 UTC launched from the Air Force Western Test Range (AFWTR). Debris objects in space refer to the collection of defunct objects orbiting the Earth. Examples of debris include non-operational satellites, rocket bodies, and fragments generated from explosions, collisions, or faulty payload assembly.

Loading next visibility...
Identifier
1504, 1965-065A
Orbit
LEO
Country
Flag of USUS
Related business
Manufacturer
NRL
Mission
Spacecraft
Bus & Motor
Unknown
Mass
Unknown
Launch date (UTC)
1965-08-13 (61 years ago)
Launch vehicle
Unknown
Launch site
Air Force Western Test Range (AFWTR)
Object type
Payload
Rocket body
Debris
Shape & HBR
Unknown shape, 0.1 m
Radar Cross Section
Medium (>0.1 m² and <1 m²)

Expand to show TLE details & history
Last TLE update: 16 hours ago

TLE from 16 hours ago
0 THOR ABLESTAR DEB
1 01504U 65065A   26236.47124056  .00000172  00000-0  29250-3 0  9991
2 01504  89.9626 241.4176 0066887  25.7361 127.2542 13.40425814976856
Epoch: 2026-08-24T11:18Z
TLE epoch observation values (Epoch: 2026-08-24T11:18:35.184Z)
Latitude
26.43461°
Longitude
-80.99997°
Altitude
1,141.482 km
Speed
7.269 km/s
True Right ascension
04h 05m 35s
True Declination
26° 18' 17"
Sunlit
Object was in daylight at epoch
Visualization orbit readout
Latitude
Unknown
Longitude
Unknown
Altitude
Unknown
Speed
Unknown
Apparent Right ascension
Unknown
Apparent Declination
Unknown
Sunlit
N/A
Visualization observer readout
Local Sidereal Time
18:51:30
Azimuth
Unknown
Elevation
Unknown
Doppler factor
Unknown
Orbital elements
Apogee altitude
1,154.808 km
Perigee altitude
1,054.706 km
Semi-major axis
7,482.894 km
Eccentricity
0.00669
Inclination
89.9626°
RAAN
241.4176°
Arg. of periapsis
25.7361°
True anomaly
127.86119°
Mean anomaly
127.2542°
Eccentric anomaly
127.558°
Mean motion
3.35304 °/min
Orbital period
107.37 mins
BSTAR
0.0002925
Loading maneuver chart data...
Computing Atmospheric mass density...
Loading historical data...
Loading historical data...
Loading historical data...
Loading historical data...
Loading historical data...
Loading historical data...
Loading historical data...

Documentation

Showing up to 5 results
|